Vertical_Velocity
-2 -1 -3 -2 -1 -2 -1 -1 -0 5 7 -7 -3 1 0 0 -5 -1 -1 -2 -2 -1 -0 1 -2 1 -1 -1 -1 -2 0 1 2 3 -5 -3 1 -5
-2 -0 -1 -3 -2 -2 -2 -2 -2 -6 3 3 -3 -4 -1 0 1 -1 -6 -3 -1 -2 -1 -2 1 -1 -0 -0 -1 -1 -4 -3 2 2 5 3 -2 -1
-2 2 -4 -2 -3 -5 -3 -3 -3 -8 -8 21 1 1 5 -1 -0 3 -0 -4 -5 -4 -0 0 -1 0 -0 -0 -1 0 -1 -1 -3 -0 1 1 -0 0
-3 -0 1 -4 1 -3 -3 -3 -3 -8 -11 -5 15 3 -1 -8 -1 1 -3 1 1 -7 -1 -1 0 -0 -0 -0 0 -1 0 -1 -2 1 1 2 1 2
-0 -1 1 -1 1 -1 -3 -1 -3 -4 -9 -14 -2 8 7 1 -5 -6 -0 -3 -4 0 -0 -0 -3 1 2 2 -1 -1 -1 -0 -1 -2 0 -0 -0 4
-0 0 1 -1 0 0 -1 -1 -2 -2 -4 -8 -7 -5 -1 13 -4 2 -5 -9 1 -4 3 1 -1 -5 -2 1 5 2 -2 0 1 0 -1 1 2 -1
-2 -1 -1 0 -1 -1 -1 3 0 -1 -2 -4 -5 -8 -0 2 -2 3 -9 2 6 2 -3 4 -5 -1 1 2 1 -0 4 1 2 1 0 -1 1 2
2 0 -5 -1 -1 -1 -2 -9 -3 2 4 -4 -1 -4 1 -9 6 -7 -8 -1 -8 15 -6 8 -9 5 5 0 -2 -0 1 1 0 2 2 2 -0 1
-3 -3 2 1 -2 -1 -1 -5 1 -2 -11 -6 -4 4 -2 3 3 3 -1 -10 -4 9 -1 -8 -0 -2 4 -3 -1 1 2 1 4 1 1 1 3 3
-1 -0 -3 1 2 -4 -2 0 -0 3 0 -6 -7 -2 -3 1 1 1 3 1 -7 1 4 -23 13 2 2 -1 -1 2 2 0 1 1 3 2 1 1
-2 -2 -5 -2 -1 -6 -8 -6 2 16 0 1 2 -1 0 -2 1 -3 6 -10 -1 9 5 -21 15 8 9 3 1 -0 2 3 4 1 2 0 0 -0
-1 1 -0 -6 -0 3 -4 -1 0 6 -0 5 5 1 0 1 -0 -2 -3 -6 -2 -9 14 -7 -6 -1 -2 13 3 -1 4 4 4 5 1 -0 0 1
0 4 5 -0 0 0 -0 -2 -2 -2 0 -3 -2 3 4 1 2 0 -1 -7 -2 -8 9 -4 4 4 -3 11 4 1 -0 2 2 3 5 3 3 2
2 0 -3 -1 1 -1 -0 -0 -2 -4 -2 -2 -3 3 -1 2 1 2 4 -1 -8 -7 7 -4 -5 4 7 -1 3 9 3 3 3 2 2 2 1 2
-4 -4 -3 -2 -2 -3 -1 -0 -2 -0 -3 -1 -1 1 -1 1 2 -0 0 -1 -3 -0 -4 1 -0 4 3 6 -1 6 6 8 8 6 3 2 2 1
-8 -7 -6 -2 2 -2 -0 2 -1 -2 -2 0 -2 1 -1 -0 1 -4 -1 2 -4 4 -4 -3 5 6 7 11 1 2 6 1 2 5 2 1 2 3
-3 -2 1 4 5 1 1 -2 -1 -0 -1 -2 -1 -0 1 -0 2 -2 -1 1 -2 2 3 -0 5 1 4 6 8 -4 -1 2 8 5 6 7 4 5
-4 -6 -2 -3 -0 1 -0 1 0 -0 -1 -0 -1 -2 -1 -1 -0 -0 -1 0 -0 -0 1 0 1 2 2 -3 4 1 2 1 -1 -2 -3 -2 -3 4
-7 -7 -5 -3 -3 -2 -2 -1 1 -0 -0 -1 -1 -1 -0 0 -1 0 1 -1 -0 0 -0 -2 1 1 -2 3 4 4 2 2 -1 2 4 3 3 13
-7 -5 -6 -5 -4 -3 -2 -1 -1 -1 -1 -1 0 -1 -0 0 2 0 -0 -1 -1 -1 1 -1 0 5 1 5 -3 4 7 3 -2 -1 -5 -2 1 -3
-2 -3 -4 -4 -3 -2 -2 -2 -2 -0 -0 -0 -1 -1 -1 -0 0 -1 1 -0 -2 -1 0 3 -1 -7 2 -2 4 5 -4 -2 -5 -0 -0 0 -2 1
-1 -2 -3 -3 -2 -1 0 -1 0 -2 -1 -0 1 0 -0 -0 -1 -1 -1 0 -1 0 2 2 -0 -2 -1 -0 1 1 1 -2 -3 -1 2 1 0 0
0 -1 -3 -2 -2 -2 -1 -1 -0 -0 0 0 -0 -0 0 2 -0 1 0 -1 -1 -1 -2 3 0 -1 -3 3 1 1 2 -0 -5 3 1 1 -1 4
Height
5707 5704 5701 5698 5696 5694 5691 5689 5688 5688 5686 5682 5679 5678 5675 5674 5671 5670 5669 5668 5666 5665 5663 5661 5661 5661 5661 5660 5660 5660 5660 5659 5661 5661 5664 5667 5669 5671
5694 5691 5687 5684 5681 5679 5676 5674 5672 5670 5670 5668 5665 5662 5659 5658 5656 5655 5653 5652 5651 5651 5650 5649 5649 5649 5650 5651 5652 5652 5653 5653 5655 5657 5658 5658 5659 5659
5679 5677 5673 5670 5666 5663 5660 5657 5655 5652 5651 5651 5646 5644 5642 5640 5639 5639 5637 5636 5635 5635 5635 5635 5634 5635 5636 5637 5639 5641 5643 5644 5645 5645 5647 5648 5650 5652
5664 5661 5657 5654 5651 5647 5643 5640 5636 5632 5631 5631 5628 5625 5622 5619 5618 5618 5618 5618 5619 5618 5619 5619 5619 5619 5619 5620 5623 5625 5628 5630 5632 5634 5635 5639 5640 5640
5647 5644 5641 5636 5633 5629 5624 5620 5616 5612 5608 5607 5606 5604 5602 5599 5598 5596 5596 5597 5597 5597 5598 5600 5601 5601 5602 5602 5604 5607 5610 5613 5615 5618 5621 5623 5626 5628
5629 5625 5621 5617 5613 5608 5603 5599 5595 5590 5586 5583 5582 5580 5577 5576 5573 5573 5574 5572 5575 5575 5577 5578 5580 5582 5583 5584 5586 5587 5590 5594 5597 5599 5603 5607 5609 5611
5609 5605 5600 5595 5590 5584 5580 5575 5571 5566 5562 5558 5557 5554 5552 5550 5547 5545 5545 5546 5550 5551 5552 5555 5555 5558 5560 5562 5564 5566 5569 5573 5577 5581 5584 5587 5591 5595
5589 5583 5577 5571 5565 5559 5553 5548 5544 5539 5535 5530 5529 5525 5524 5520 5518 5516 5517 5518 5522 5522 5523 5531 5530 5535 5536 5538 5541 5543 5547 5551 5555 5560 5563 5568 5572 5576
5566 5560 5554 5548 5541 5535 5529 5523 5518 5509 5502 5499 5497 5493 5491 5488 5486 5484 5483 5485 5491 5496 5493 5505 5505 5511 5512 5514 5516 5520 5523 5528 5532 5538 5543 5546 5552 5557
5542 5535 5529 5524 5516 5508 5502 5496 5488 5480 5471 5463 5458 5458 5455 5453 5450 5447 5448 5449 5457 5464 5458 5469 5476 5483 5484 5488 5491 5496 5500 5503 5509 5515 5521 5526 5530 5536
5519 5510 5502 5495 5486 5476 5468 5461 5455 5448 5436 5428 5423 5420 5418 5416 5415 5410 5412 5410 5419 5427 5428 5425 5443 5447 5453 5458 5463 5469 5474 5479 5483 5489 5495 5502 5508 5515
5492 5482 5471 5461 5453 5442 5432 5424 5418 5413 5405 5400 5397 5394 5390 5388 5387 5381 5380 5381 5385 5392 5401 5397 5405 5410 5418 5429 5434 5440 5446 5452 5458 5463 5470 5476 5484 5491
5463 5453 5442 5430 5420 5411 5402 5395 5388 5383 5380 5376 5375 5372 5368 5364 5361 5357 5354 5352 5357 5362 5371 5368 5377 5382 5385 5397 5405 5411 5418 5424 5431 5437 5444 5452 5459 5466
5431 5422 5413 5405 5397 5389 5382 5374 5367 5362 5359 5357 5355 5353 5350 5347 5344 5340 5338 5334 5333 5339 5345 5343 5346 5356 5362 5367 5375 5385 5390 5399 5406 5412 5419 5426 5435 5444
5404 5398 5393 5386 5377 5370 5362 5355 5348 5343 5339 5337 5336 5334 5331 5328 5326 5323 5320 5317 5317 5319 5321 5323 5326 5332 5338 5344 5352 5361 5367 5375 5381 5388 5395 5403 5412 5420
5386 5381 5373 5366 5357 5349 5342 5336 5330 5325 5323 5320 5318 5317 5314 5312 5310 5307 5307 5305 5304 5306 5305 5306 5311 5314 5320 5325 5330 5338 5345 5353 5360 5366 5373 5381 5390 5397
5375 5367 5357 5346 5338 5330 5324 5319 5315 5311 5308 5306 5306 5304 5303 5300 5298 5296 5295 5294 5293 5293 5293 5294 5298 5301 5305 5311 5315 5318 5326 5333 5341 5346 5353 5361 5368 5376
5361 5350 5339 5328 5321 5315 5310 5307 5303 5300 5298 5296 5295 5293 5291 5290 5289 5287 5284 5283 5282 5282 5283 5283 5286 5290 5292 5296 5302 5306 5311 5314 5319 5326 5334 5343 5350 5358
5349 5338 5327 5317 5310 5305 5301 5298 5295 5292 5290 5288 5286 5284 5282 5280 5278 5277 5275 5273 5273 5273 5273 5273 5276 5277 5280 5285 5289 5292 5297 5300 5304 5312 5319 5325 5333 5340
5342 5333 5324 5315 5307 5301 5296 5292 5288 5285 5283 5280 5278 5275 5273 5270 5269 5266 5265 5264 5264 5264 5265 5265 5266 5267 5269 5272 5276 5282 5285 5287 5291 5295 5301 5308 5315 5323
5337 5329 5322 5315 5308 5302 5296 5291 5286 5282 5279 5276 5273 5270 5266 5263 5260 5257 5255 5254 5253 5254 5255 5256 5255 5255 5259 5262 5265 5268 5270 5273 5277 5282 5287 5294 5301 5308
5331 5324 5318 5312 5306 5300 5294 5289 5285 5280 5277 5273 5270 5266 5263 5259 5256 5253 5250 5247 5245 5244 5246 5246 5247 5247 5249 5252 5254 5256 5258 5260 5263 5267 5274 5280 5286 5293
5325 5320 5314 5308 5302 5296 5291 5285 5281 5277 5273 5270 5266 5262 5257 5253 5250 5247 5245 5242 5240 5238 5237 5238 5238 5239 5241 5244 5245 5246 5248 5249 5251 5256 5260 5265 5272 5278